Back to catalog

STARLINK-36730

AliveCommunicationsVLEO
NORAD 67874·PAYLOAD·🇺🇸 United States

Launched Feb 20, 2026 from Vandenberg Space Force Base

Loading…

Next Passes (next 24 hours)

TLE

FreshSource: CelesTrak SupGP

Epoch: Sep 14, 2026, 23:13 UTC

1 67874C 26034AA  26257.96784722  .00005547  00000+0  16394-3 0  2577
2 67874  53.1592  39.8523 0001178  84.7053  87.8956 15.34378320    13

Track STARLINK-36730 in real time with AllMySat

Download on the App Store